Location: Bazugues
(43.4465°N, 0.3432°E)
Time: 11:11:02
(UTC+00:00)

NOAA 15 - Pass Details

Date: 12 January 2026
Orbit: 794 x 809 km, 98.5° (Epoch: 11 February)

Event Time Altitude Azimuth Distance (km) Brightness Sun altitude
Rises 18:03:56 0° 156° (SSE) 3,292 7.7 -14.1°
Reaches altitude 10° 18:06:15 10° 154° (SSE) 2,364 6.9 -14.5°
Maximum altitude 18:11:26 66° 73° (ENE) 868 4.5 -15.4°
Drops below altitude 10° 18:16:37 10° 352° (N) 2,374 7.0 -16.3°
Sets 18:18:58 0° 350° (N) 3,307 7.8 -16.7°
